CW5212 Weather Reports


Display with metric or nautical units.
time (UTC)temp
F
wind
direction
speed
MPH
gust
MPH
rain 1hr
in
rain 24hr
in
rain mn
in
humidity
%
barometer
mb
20260831054534 56 187 4.0 6.0 0.00 0.00 0.00 20 947.6
20260831053014 56 197 2.0 3.0 0.00 0.00 0.00 19 947.7
20260831051551 57 197 0.0 6.0 0.00 0.00 0.00 19 947.6
20260831050044 57 188 2.0 4.0 0.00 0.00 0.00 19 947.5
20260831044508 57 249 1.0 7.0 0.00 0.00 0.00 19 947.4
20260831043041 56 237 3.0 7.0 0.00 0.00 0.00 20 947.3
20260831041522 56 190 4.0 8.0 0.00 0.00 0.00 19 947.2
20260831040056 57 220 4.0 8.0 0.00 0.00 0.00 18 947.2
20260831034535 57 200 4.0 7.0 0.00 0.00 0.00 19 947.1
20260831033019 57 219 0.0 3.0 0.00 0.00 0.00 21 946.8
20260831031556 56 338 2.0 5.0 0.00 0.00 0.00 26 946.7
20260831030029 57 193 2.0 5.0 0.00 0.00 0.00 25 946.6
20260831024507 58 225 3.0 5.0 0.00 0.00 0.00 25 946.4
20260831023044 58 200 4.0 8.0 0.00 0.00 0.00 26 946.2
20260831021520 59 203 3.0 6.0 0.00 0.00 0.00 28 946.3
20260831020113 60 212 5.0 11.0 0.00 0.00 0.00 26 946.3
20260831014540 62 238 7.0 13.0 0.00 0.00 0.00 25 946.3
20260831013014 63 239 10.0 16.0 0.00 0.00 0.00 23 946.2
20260831011559 63 255 10.0 17.0 0.00 0.00 0.00 23 946.2
20260831010041 64 266 10.0 19.0 0.00 0.00 0.00 23 946.4
20260831004508 65 237 10.0 19.0 0.00 0.00 0.00 22 946.4
20260831003042 65 236 13.0 20.0 0.00 0.00 0.00 22 946.4
20260831001534 66 229 15.0 21.0 0.00 0.00 0.00 21 946.5
20260831000056 66 236 10.0 20.0 0.00 0.00 0.00 23 946.5
20260830234556 66 228 13.0 21.0 0.00 0.00 0.00 22 946.4
20260830233016 66 224 12.0 20.0 0.00 0.00 0.00 23 946.4
20260830231551 67 235 9.0 15.0 0.00 0.00 0.00 23 946.5
20260830230036 66 207 11.0 21.0 0.00 0.00 0.00 21 946.5
20260830224505 67 209 13.0 16.0 0.00 0.00 0.00 22 946.5
20260830223044 66 254 13.0 19.0 0.00 0.00 0.00 23 946.5
20260830221519 66 221 12.0 20.0 0.00 0.00 0.00 24 946.7
20260830220057 66 242 12.0 21.0 0.00 0.00 0.00 24 946.8
20260830214534 66 218 11.0 23.0 0.00 0.00 0.00 23 946.8
20260830213014 66 303 10.0 19.0 0.00 0.00 0.00 25 946.9
20260830211559 66 221 9.0 19.0 0.00 0.00 0.00 26 946.9
20260830210030 65 279 10.0 18.0 0.00 0.00 0.00 23 947.3
20260830204510 65 281 8.0 16.0 0.00 0.00 0.00 26 947.3
20260830203041 64 248 11.0 18.0 0.00 0.00 0.00 26 947.3
20260830201554 63 230 12.0 19.0 0.00 0.00 0.00 25 947.3
20260830200055 64 260 10.0 18.0 0.00 0.00 0.00 26 947.2
20260830194535 63 248 9.0 19.0 0.00 0.00 0.00 26 947.2
20260830193015 62 251 8.0 17.0 0.00 0.00 0.00 26 947.0
20260830191551 62 246 10.0 17.0 0.00 0.00 0.00 26 947.0
20260830190033 61 247 8.0 14.0 0.00 0.00 0.00 28 947.1
20260830184505 60 232 9.0 15.0 0.00 0.00 0.00 28 947.0
20260830183043 60 263 11.0 15.0 0.00 0.00 0.00 31 947.1
20260830181519 60 239 9.0 14.0 0.00 0.00 0.00 35 947.2
20260830180108 59 269 11.0 16.0 0.00 0.00 0.00 35 947.0
20260830174533 58 223 10.0 16.0 0.00 0.00 0.00 35 946.9
20260830173025 58 269 12.0 20.0 0.00 0.00 0.00 35 946.9
20260830171602 58 256 14.0 21.0 0.00 0.00 0.00 38 946.7
20260830170040 57 265 14.0 20.0 0.00 0.00 0.00 38 946.3
20260830164532 58 226 11.0 16.0 0.00 0.00 0.00 35 946.2
20260830163027 59 256 11.0 17.0 0.00 0.00 0.00 28 946.2
20260830161511 59 258 10.0 16.0 0.00 0.00 0.00 28 945.9
20260830160047 57 202 6.0 12.0 0.00 0.00 0.00 40 945.9
20260830154535 56 242 9.0 17.0 0.00 0.00 0.00 38 946.0
20260830153035 54 256 9.0 18.0 0.00 0.00 0.00 42 946.0
20260830151527 54 277 8.0 14.0 0.00 0.00 0.00 44 946.0
20260830150013 53 267 14.0 22.0 0.00 0.00 0.00 45 945.9
20260830144559 53 200 8.0 12.0 0.00 0.00 0.00 52 945.7
20260830144501 53 250 8.0 12.0 0.00 0.00 0.00 49 945.6
20260830143059 52 265 9.0 14.0 0.00 0.00 0.00 51 945.5
20260830141547 51 285 9.0 15.0 0.00 0.00 0.00 56 945.4
20260830140035 49 264 5.0 9.0 0.00 0.00 0.00 65 945.3
20260830134519 50 219 3.0 5.0 0.00 0.00 0.00 67 945.0
20260830133033 51 245 2.0 6.0 0.00 0.00 0.00 65 944.8
20260830131508 50 286 0.0 4.0 0.00 0.00 0.00 71 944.7
20260830130100 50 245 1.0 3.0 0.00 0.00 0.00 78 944.6
20260830130007 50 245 1.0 3.0 0.00 0.00 0.00 78 944.6
20260830124600 51 245 0.0 4.0 0.00 0.00 0.00 78 944.3
20260830123102 50 261 1.0 3.0 0.00 0.00 0.00 77 944.1
20260830121545 51 196 6.0 12.0 0.00 0.00 0.00 78 943.9
20260830120038 52 298 4.0 10.0 0.00 0.00 0.00 87 943.6
20260830114527 53 187 2.0 3.0 0.00 0.00 0.00 85 943.4
20260830113031 53 188 3.0 7.0 0.00 0.00 0.00 84 943.5
20260830111533 54 257 8.0 12.0 0.00 0.00 0.00 80 943.5
20260830110017 54 126 9.0 19.0 0.00 0.00 0.00 79 943.0
20260830104517 54 138 10.0 18.0 0.00 0.00 0.00 79 942.8
20260830103053 55 125 10.0 19.0 0.00 0.00 0.00 78 942.8
20260830101533 54 123 12.0 20.0 0.00 0.00 0.00 79 942.8
20260830100014 54 130 12.0 23.0 0.00 0.00 0.00 79 942.7
20260830094606 54 129 12.0 18.0 0.00 0.00 0.00 78 942.6
20260830093029 55 100 12.0 18.0 0.00 0.00 0.00 77 942.4
20260830091503 54 102 13.0 18.0 0.00 0.00 0.00 78 942.5
20260830090047 54 123 11.0 17.0 0.00 0.00 0.00 80 942.4
20260830084517 54 117 12.0 18.0 0.00 0.00 0.00 80 942.4
20260830083102 54 115 13.0 25.0 0.00 0.00 0.00 81 942.5
20260830081531 55 103 15.0 20.0 0.00 0.00 0.00 78 942.3
20260830080025 55 88 13.0 19.0 0.00 0.00 0.00 79 942.3
20260830074605 54 101 12.0 17.0 0.00 0.00 0.00 82 942.5
20260830073026 55 107 11.0 16.0 0.00 0.00 0.00 81 942.4
20260830071507 54 117 11.0 17.0 0.00 0.00 0.00 82 942.4
20260830070042 54 91 11.0 19.0 0.00 0.00 0.00 82 942.4
20260830064535 54 123 13.0 18.0 0.00 0.00 0.00 81 942.3
20260830063054 54 104 12.0 19.0 0.00 0.00 0.00 83 942.6
20260830061533 54 107 14.0 20.0 0.00 0.00 0.00 83 942.6
20260830060016 53 128 12.0 19.0 0.00 0.00 0.00 84 942.6